This demonstration page uses our WeatherBlox Daily Observations layout. Learn more.

Hourly Observations for July 5, 2020

Temp ( °F °C ) Dew Point ( °F °C ) Humidity (%) Winds ( mph kmh ) Pressure ( in mb ) Visibility ( mi km ) Precip ( " mm )
12:14 am 00:14 Hazy 74 23.3 68 20 82 82 N 6 9 29.98 1015 2 3.21868 0 0
12:44 am 00:44 Clear with Mist and Fog 72 22.2 68 20 87 87 N 5 7 29.99 1015 3 4.82802 0 0
12:54 am 00:54 Clear with Mist and Fog 72 22.2 68 20 87 87 Calm 29.99 1016 2.5 4.02335 0 0
1:14 am 01:14 Clear with Mist and Fog 72 22.2 68 20 87 87 N 3 6 29.98 1015 3 4.82802 0 0
1:28 am 01:28 Clear with Mist and Fog 72 22.2 68 20 87 87 Calm 29.97 1015 2.5 4.02335 0 0
1:37 am 01:37 Clear with Mist and Fog 72 22.2 68 20 87 87 Calm 29.97 1015 3 4.82802 0 0
1:54 am 01:54 Clear with Mist and Fog 71 21.7 67 19.4 87 87 N 5 7 29.97 1015 3 4.82802 0 0
2:54 am 02:54 Mostly Clear with Mist and Fog 71 21.7 67 19.4 87 87 Calm 29.97 1015 4 6.43736 0 0
3:15 am 03:15 Mostly Clear with Mist and Fog 70 21.1 67 19.4 90 90 N 6 9 29.97 1015 2.5 4.02335 0 0
3:26 am 03:26 Clear with Mist and Fog 70 21.1 67 19.4 90 90 N 6 9 29.97 1015 4 6.43736 0 0
3:54 am 03:54 Mostly Cloudy with Mist and Fog 70 21.1 67 19.4 90 90 N 5 7 29.98 1015 4 6.43736 0 0
4:54 am 04:54 Mostly Cloudy with Mist and Fog 71 21.7 67 19.4 87 87 N 5 7 29.98 1015 4 6.43736 0 0
5:54 am 05:54 Clear with Mist and Fog 71 21.7 67 19.4 87 87 ESE 3 6 29.97 1015 6 9.65604 0 0
6:54 am 06:54 Sunny with Mist and Fog 71 21.7 67 19.4 87 87 N 6 9 29.98 1015 4 6.43736 0 0
7:54 am 07:54 Hazy 74 23.3 69 20.6 85 85 ENE 5 7 29.98 1015 5 8.0467 0 0
8:54 am 08:54 Sunny 78 25.6 69 20.6 74 74 SE 8 13 29.99 1016 9 14.48406 0 0
9:54 am 09:54 Sunny 82 27.8 69 20.6 65 65 SSE 6 9 29.98 1015 10 16.0934 0 0
10:54 am 10:54 Sunny 84 28.9 69 20.6 61 61 SSE 13 20 29.98 1015 10 16.0934 0 0
11:54 am 11:54 Mostly Sunny 86 30 70 21.1 59 59 SSE 13 20 29.98 1015 10 16.0934 0 0
12:54 pm 12:54 Partly Cloudy 86 30 68 20 55 55 SSE 9 15 29.98 1015 10 16.0934 0 0
1:54 pm 13:54 Partly Cloudy 88 31.1 68 20 52 52 SE 12 19 29.97 1015 10 16.0934 0 0
2:54 pm 14:54 Partly Cloudy 87 30.6 67 19.4 51 51 SE 7 11 29.95 1014 10 16.0934 0 0
3:54 pm 15:54 Partly Cloudy 87 30.6 68 20 53 53 SSE 8 13 29.94 1014 10 16.0934 0 0
4:54 pm 16:54 Mostly Sunny 88 31.1 69 20.6 54 54 VRB 7 11 29.93 1014 10 16.0934 0 0
5:54 pm 17:54 Partly Cloudy 88 31.1 69 20.6 54 54 SE 9 15 29.92 1013 10 16.0934 0 0
6:54 pm 18:54 Sunny 85 29.4 68 20 57 57 SSE 10 17 29.91 1013 10 16.0934 0 0
7:54 pm 19:54 Sunny 84 28.9 67 19.4 57 57 SE 9 15 29.91 1013 10 16.0934 0 0
8:54 pm 20:54 Sunny 82 27.8 67 19.4 60 60 ESE 7 11 29.91 1013 10 16.0934 0 0
9:54 pm 21:54 Clear 80 26.7 68 20 67 67 ESE 5 7 29.93 1014 10 16.0934 0 0
10:54 pm 22:54 Clear 79 26.1 68 20 69 69 SE 3 6 29.95 1014 10 16.0934 0 0
11:54 pm 23:54 Clear 77 25 68 20 74 74 ESE 5 7 29.96 1015 10 16.0934 0 0

Powered by AerisWeather